Time,TemperatureF,DewpointF,PressureIn,WindDirection,WindDirectionDegrees,WindSpeedMPH,WindSpeedGustMPH,Humidity,HourlyPrecipIn,Conditions,Clouds,dailyrainin,SoftwareType,DateUTC
2013-01-30 00:00:00,61.7,50.6,29.80,SSW,196,3.0,7.0,67,0.00,,,0.00,VWS V14.01,2013-01-30 05:00:00,
2013-01-30 00:01:00,61.7,50.6,29.80,SSE,150,3.0,7.0,67,0.00,,,0.00,VWS V14.01,2013-01-30 05:01:00,
2013-01-30 00:03:00,61.8,50.7,29.80,South,174,2.0,7.0,67,0.00,,,0.00,VWS V14.01,2013-01-30 05:03:00,
2013-01-30 00:08:00,61.8,50.7,29.80,SE,144,4.0,7.0,67,0.00,,,0.00,VWS V14.01,2013-01-30 05:08:00,
2013-01-30 00:13:00,61.8,50.3,29.80,SSE,159,3.0,7.0,66,0.00,,,0.00,VWS V14.01,2013-01-30 05:13:00,
2013-01-30 00:18:00,61.9,50.4,29.80,SSW,202,2.0,7.0,66,0.00,,,0.00,VWS V14.01,2013-01-30 05:18:00,
2013-01-30 00:24:00,61.9,50.4,29.79,South,182,2.0,8.0,66,0.00,,,0.00,VWS V14.01,2013-01-30 05:24:00,
2013-01-30 00:29:00,61.9,50.4,29.79,SSW,204,3.0,8.0,66,0.00,,,0.00,VWS V14.01,2013-01-30 05:29:00,
2013-01-30 00:34:00,61.8,49.9,29.78,South,184,3.0,7.0,65,0.00,,,0.00,VWS V14.01,2013-01-30 05:34:00,
2013-01-30 00:39:00,61.7,49.8,29.78,SSW,200,1.0,8.0,65,0.00,,,0.00,VWS V14.01,2013-01-30 05:39:00,
2013-01-30 00:44:00,61.7,49.8,29.78,SSW,195,1.0,8.0,65,0.00,,,0.00,VWS V14.01,2013-01-30 05:44:00,
2013-01-30 00:49:00,61.7,49.8,29.78,SE,135,6.0,8.0,65,0.00,,,0.00,VWS V14.01,2013-01-30 05:49:00,
2013-01-30 00:54:00,61.8,49.9,29.77,SSE,150,4.0,8.0,65,0.00,,,0.00,VWS V14.01,2013-01-30 05:54:00,
2013-01-30 00:59:00,61.8,49.5,29.77,SW,219,5.0,10.0,64,0.00,,,0.00,VWS V14.01,2013-01-30 05:59:00,
2013-01-30 01:04:00,61.8,49.5,29.76,SSW,202,5.0,7.0,64,0.00,,,0.00,VWS V14.01,2013-01-30 06:04:00,
2013-01-30 01:09:00,61.8,49.5,29.76,SE,138,3.0,7.0,64,0.00,,,0.00,VWS V14.01,2013-01-30 06:09:00,
2013-01-30 01:14:00,61.7,49.4,29.76,South,184,4.0,7.0,64,0.00,,,0.00,VWS V14.01,2013-01-30 06:14:00,
2013-01-30 01:19:00,61.6,49.3,29.76,SSE,161,3.0,7.0,64,0.00,,,0.00,VWS V14.01,2013-01-30 06:19:00,
2013-01-30 01:24:00,61.7,49.4,29.75,SSW,194,2.0,7.0,64,0.00,,,0.00,VWS V14.01,2013-01-30 06:24:00,
2013-01-30 01:29:00,61.7,49.4,29.75,South,178,2.0,7.0,64,0.00,,,0.00,VWS V14.01,2013-01-30 06:29:00,
2013-01-30 01:34:00,61.6,49.3,29.75,South,173,3.0,6.0,64,0.00,,,0.00,VWS V14.01,2013-01-30 06:34:00,
2013-01-30 01:39:00,61.7,49.4,29.75,SE,135,8.0,9.0,64,0.00,,,0.00,VWS V14.01,2013-01-30 06:39:00,
2013-01-30 01:45:00,61.9,49.2,29.74,South,178,5.0,9.0,63,0.00,,,0.00,VWS V14.01,2013-01-30 06:45:00,
2013-01-30 01:50:00,62.0,49.3,29.73,SSE,160,3.0,9.0,63,0.00,,,0.00,VWS V14.01,2013-01-30 06:50:00,
2013-01-30 01:55:00,62.1,49.4,29.72,SSE,157,2.0,10.0,63,0.00,,,0.00,VWS V14.01,2013-01-30 06:55:00,
2013-01-30 02:00:00,62.1,49.4,29.72,SSE,161,3.0,10.0,63,0.00,,,0.00,VWS V14.01,2013-01-30 07:00:00,
2013-01-30 02:05:00,62.2,49.5,29.72,South,169,5.0,9.0,63,0.00,,,0.00,VWS V14.01,2013-01-30 07:05:00,
2013-01-30 02:10:00,62.2,49.0,29.72,SSW,198,3.0,9.0,62,0.00,,,0.00,VWS V14.01,2013-01-30 07:10:00,
2013-01-30 02:15:00,62.2,49.0,29.72,South,176,3.0,9.0,62,0.00,,,0.00,VWS V14.01,2013-01-30 07:15:00,
2013-01-30 02:20:00,62.1,49.4,29.72,South,188,3.0,9.0,63,0.00,,,0.00,VWS V14.01,2013-01-30 07:20:00,
2013-01-30 02:25:00,62.0,49.3,29.72,South,180,2.0,9.0,63,0.00,,,0.00,VWS V14.01,2013-01-30 07:25:00,
2013-01-30 02:30:00,61.9,49.2,29.71,SSE,157,3.0,3.0,63,0.00,,,0.00,VWS V14.01,2013-01-30 07:30:00,
2013-01-30 02:35:00,61.8,49.1,29.71,SSE,157,2.0,5.0,63,0.00,,,0.00,VWS V14.01,2013-01-30 07:35:00,
2013-01-30 02:40:00,61.8,49.1,29.70,SE,140,3.0,6.0,63,0.00,,,0.00,VWS V14.01,2013-01-30 07:40:00,
2013-01-30 02:45:00,61.8,49.1,29.69,SE,135,4.0,6.0,63,0.00,,,0.00,VWS V14.01,2013-01-30 07:45:00,
2013-01-30 02:50:00,61.8,49.1,29.70,South,173,0.0,9.0,63,0.00,,,0.00,VWS V14.01,2013-01-30 07:50:00,
2013-01-30 02:55:00,61.9,49.6,29.70,SSW,199,4.0,9.0,64,0.00,,,0.00,VWS V14.01,2013-01-30 07:55:00,
2013-01-30 03:00:00,62.1,49.4,29.69,South,190,3.0,4.0,63,0.00,,,0.00,VWS V14.01,2013-01-30 08:00:00,
2013-01-30 03:05:00,62.3,49.6,29.68,SSE,161,2.0,7.0,63,0.00,,,0.00,VWS V14.01,2013-01-30 08:05:00,
2013-01-30 03:10:00,62.3,49.6,29.68,SSE,161,0.0,7.0,63,0.00,,,0.00,VWS V14.01,2013-01-30 08:10:00,
2013-01-30 03:15:00,62.1,49.4,29.68,SSE,161,0.0,7.0,63,0.00,,,0.00,VWS V14.01,2013-01-30 08:15:00,
2013-01-30 03:21:00,62.0,49.7,29.68,SSW,201,0.0,7.0,64,0.00,,,0.00,VWS V14.01,2013-01-30 08:21:00,
2013-01-30 03:26:00,62.1,49.8,29.68,South,184,2.0,7.0,64,0.00,,,0.00,VWS V14.01,2013-01-30 08:26:00,
2013-01-30 03:31:00,62.2,49.9,29.67,South,181,2.0,5.0,64,0.00,,,0.00,VWS V14.01,2013-01-30 08:31:00,
2013-01-30 03:36:00,62.2,49.9,29.66,SE,134,4.0,5.0,64,0.00,,,0.00,VWS V14.01,2013-01-30 08:36:00,
2013-01-30 03:41:00,62.3,50.0,29.66,SSW,193,4.0,5.0,64,0.00,,,0.00,VWS V14.01,2013-01-30 08:41:00,
2013-01-30 03:46:00,62.4,50.1,29.65,SSW,192,0.0,5.0,64,0.00,,,0.00,VWS V14.01,2013-01-30 08:46:00,
2013-01-30 03:51:00,62.4,50.1,29.65,South,169,3.0,5.0,64,0.00,,,0.00,VWS V14.01,2013-01-30 08:51:00,
2013-01-30 03:56:00,62.3,50.0,29.65,South,172,2.0,6.0,64,0.00,,,0.00,VWS V14.01,2013-01-30 08:56:00,
2013-01-30 04:01:00,62.2,50.3,29.64,SSE,158,1.0,7.0,65,0.00,,,0.00,VWS V14.01,2013-01-30 09:01:00,
2013-01-30 04:06:00,62.3,50.4,29.64,South,169,3.0,7.0,65,0.00,,,0.00,VWS V14.01,2013-01-30 09:06:00,
2013-01-30 04:11:00,62.5,50.2,29.64,SW,219,4.0,8.0,64,0.00,,,0.00,VWS V14.01,2013-01-30 09:11:00,
2013-01-30 04:16:00,62.6,50.3,29.63,South,174,6.0,8.0,64,0.00,,,0.00,VWS V14.01,2013-01-30 09:16:00,
2013-01-30 04:21:00,62.7,50.4,29.63,SSE,165,2.0,8.0,64,0.00,,,0.00,VWS V14.01,2013-01-30 09:21:00,
2013-01-30 04:26:00,62.8,50.5,29.63,SSE,165,3.0,9.0,64,0.00,,,0.00,VWS V14.01,2013-01-30 09:26:00,
2013-01-30 04:31:00,62.9,50.5,29.63,South,169,3.0,6.0,64,0.00,,,0.00,VWS V14.01,2013-01-30 09:31:00,
2013-01-30 04:36:00,63.0,50.7,29.62,SSE,148,3.0,11.0,64,0.00,,,0.00,VWS V14.01,2013-01-30 09:36:00,
2013-01-30 04:41:00,62.9,50.5,29.62,South,184,8.0,11.0,64,0.00,,,0.00,VWS V14.01,2013-01-30 09:41:00,
2013-01-30 04:46:00,62.9,50.5,29.62,South,169,5.0,11.0,64,0.00,,,0.00,VWS V14.01,2013-01-30 09:46:00,
2013-01-30 04:51:00,62.8,50.5,29.62,South,173,2.0,11.0,64,0.00,,,0.00,VWS V14.01,2013-01-30 09:51:00,
2013-01-30 04:56:00,62.8,50.9,29.62,SSE,157,7.0,11.0,65,0.00,,,0.00,VWS V14.01,2013-01-30 09:56:00,
2013-01-30 05:01:00,62.9,51.0,29.61,South,175,4.0,8.0,65,0.00,,,0.00,VWS V14.01,2013-01-30 10:01:00,
2013-01-30 05:06:00,62.9,51.0,29.61,South,177,4.0,9.0,65,0.00,,,0.00,VWS V14.01,2013-01-30 10:06:00,
2013-01-30 05:12:00,62.9,51.0,29.60,South,184,5.0,11.0,65,0.00,,,0.00,VWS V14.01,2013-01-30 10:12:00,
2013-01-30 05:17:00,62.9,51.0,29.60,SSW,198,5.0,12.0,65,0.00,,,0.00,VWS V14.01,2013-01-30 10:17:00,
2013-01-30 05:22:00,63.1,51.2,29.60,SSE,151,3.0,12.0,65,0.00,,,0.00,VWS V14.01,2013-01-30 10:22:00,
2013-01-30 05:27:00,63.3,51.3,29.59,SSW,204,7.0,12.0,65,0.00,,,0.00,VWS V14.01,2013-01-30 10:27:00,
2013-01-30 05:32:00,63.4,51.4,29.59,SSW,198,6.0,8.0,65,0.00,,,0.00,VWS V14.01,2013-01-30 10:32:00,
2013-01-30 05:37:00,63.6,52.0,29.59,South,187,7.0,12.0,66,0.00,,,0.00,VWS V14.01,2013-01-30 10:37:00,
2013-01-30 05:42:00,63.7,52.1,29.59,SSE,167,3.0,12.0,66,0.00,,,0.00,VWS V14.01,2013-01-30 10:42:00,
2013-01-30 05:47:00,63.8,52.2,29.58,SSE,165,3.0,12.0,66,0.00,,,0.00,VWS V14.01,2013-01-30 10:47:00,
2013-01-30 05:52:00,63.8,52.2,29.58,SE,126,7.0,13.0,66,0.00,,,0.00,VWS V14.01,2013-01-30 10:52:00,
2013-01-30 05:57:00,63.8,52.7,29.57,SSE,157,1.0,14.0,67,0.00,,,0.00,VWS V14.01,2013-01-30 10:57:00,
2013-01-30 06:02:00,63.7,52.5,29.57,South,187,5.0,8.0,67,0.00,,,0.00,VWS V14.01,2013-01-30 11:02:00,
2013-01-30 06:07:00,63.7,53.0,29.57,SSE,148,9.0,13.0,68,0.00,,,0.00,VWS V14.01,2013-01-30 11:07:00,
2013-01-30 06:12:00,63.7,53.0,29.56,South,170,9.0,13.0,68,0.00,,,0.00,VWS V14.01,2013-01-30 11:12:00,
2013-01-30 06:17:00,63.7,53.0,29.56,SE,140,1.0,13.0,68,0.00,,,0.00,VWS V14.01,2013-01-30 11:17:00,
2013-01-30 06:22:00,63.7,53.3,29.55,SSE,159,9.0,13.0,69,0.00,,,0.00,VWS V14.01,2013-01-30 11:22:00,
2013-01-30 06:27:00,63.6,53.3,29.55,SSE,159,2.0,13.0,69,0.00,,,0.00,VWS V14.01,2013-01-30 11:27:00,
2013-01-30 06:32:00,63.6,53.3,29.55,South,184,7.0,13.0,69,0.00,,,0.00,VWS V14.01,2013-01-30 11:32:00,
2013-01-30 06:37:00,63.6,53.3,29.54,SE,142,8.0,13.0,69,0.00,,,0.00,VWS V14.01,2013-01-30 11:37:00,
2013-01-30 06:42:00,63.8,53.5,29.54,SSE,168,6.0,15.0,69,0.00,,,0.00,VWS V14.01,2013-01-30 11:42:00,
2013-01-30 06:47:00,63.9,53.5,29.53,ESE,120,3.0,15.0,69,0.00,,,0.00,VWS V14.01,2013-01-30 11:47:00,
2013-01-30 06:53:00,63.8,53.8,29.54,South,185,13.0,15.0,70,0.00,,,0.00,VWS V14.01,2013-01-30 11:53:00,
2013-01-30 06:58:00,63.9,53.9,29.53,SE,130,3.0,15.0,70,0.00,,,0.00,VWS V14.01,2013-01-30 11:58:00,
2013-01-30 07:03:00,63.8,53.8,29.53,SSE,165,3.0,10.0,70,0.00,,,0.00,VWS V14.01,2013-01-30 12:03:00,
2013-01-30 07:08:00,63.8,53.8,29.53,SSE,161,6.0,10.0,70,0.00,,,0.00,VWS V14.01,2013-01-30 12:08:00,
2013-01-30 07:13:00,63.9,53.9,29.53,SE,146,5.0,12.0,70,0.00,,,0.00,VWS V14.01,2013-01-30 12:13:00,
2013-01-30 07:18:00,64.1,54.1,29.52,SE,139,9.0,12.0,70,0.00,,,0.00,VWS V14.01,2013-01-30 12:18:00,
2013-01-30 07:23:00,64.3,54.3,29.52,South,171,4.0,12.0,70,0.00,,,0.00,VWS V14.01,2013-01-30 12:23:00,
2013-01-30 07:28:00,64.4,54.4,29.52,SSE,147,2.0,12.0,70,0.00,,,0.00,VWS V14.01,2013-01-30 12:28:00,
2013-01-30 07:33:00,64.5,54.1,29.52,WSW,240,5.0,12.0,69,0.00,,,0.00,VWS V14.01,2013-01-30 12:33:00,
2013-01-30 07:38:00,64.5,54.1,29.52,SW,215,6.0,12.0,69,0.00,,,0.00,VWS V14.01,2013-01-30 12:38:00,
2013-01-30 07:43:00,64.7,54.3,29.52,SSE,161,4.0,14.0,69,0.00,,,0.00,VWS V14.01,2013-01-30 12:43:00,
2013-01-30 07:48:00,64.8,54.0,29.52,South,173,3.0,14.0,68,0.00,,,0.00,VWS V14.01,2013-01-30 12:48:00,
2013-01-30 07:53:00,64.8,54.0,29.52,SSE,163,3.0,14.0,68,0.00,,,0.00,VWS V14.01,2013-01-30 12:53:00,
2013-01-30 07:58:00,64.8,54.0,29.51,South,175,5.0,14.0,68,0.00,,,0.00,VWS V14.01,2013-01-30 12:58:00,
2013-01-30 08:03:00,64.9,54.1,29.51,SSE,163,2.0,8.0,68,0.00,,,0.00,VWS V14.01,2013-01-30 13:03:00,
2013-01-30 08:08:00,65.1,54.3,29.51,SSE,167,2.0,12.0,68,0.00,,,0.00,VWS V14.01,2013-01-30 13:08:00,
2013-01-30 08:13:00,65.3,54.1,29.51,SSE,157,12.0,12.0,67,0.00,,,0.00,VWS V14.01,2013-01-30 13:13:00,
2013-01-30 08:18:00,65.6,54.4,29.51,SSE,161,4.0,12.0,67,0.00,,,0.00,VWS V14.01,2013-01-30 13:18:00,
2013-01-30 08:24:00,65.8,54.1,29.51,SSW,209,7.0,12.0,66,0.00,,,0.00,VWS V14.01,2013-01-30 13:24:00,
2013-01-30 08:29:00,65.8,54.1,29.50,South,175,3.0,12.0,66,0.00,,,0.00,VWS V14.01,2013-01-30 13:29:00,
2013-01-30 08:34:00,65.9,54.2,29.50,SSE,157,4.0,8.0,66,0.00,,,0.00,VWS V14.01,2013-01-30 13:34:00,
2013-01-30 08:39:00,65.9,54.2,29.49,SE,130,5.0,10.0,66,0.00,,,0.00,VWS V14.01,2013-01-30 13:39:00,
2013-01-30 08:44:00,66.1,54.4,29.49,SSE,151,2.0,10.0,66,0.00,,,0.00,VWS V14.01,2013-01-30 13:44:00,
2013-01-30 08:49:00,66.1,54.0,29.49,SE,142,3.0,10.0,65,0.00,,,0.00,VWS V14.01,2013-01-30 13:49:00,
2013-01-30 08:54:00,66.3,54.2,29.48,South,171,3.0,10.0,65,0.00,,,0.00,VWS V14.01,2013-01-30 13:54:00,
2013-01-30 08:59:00,66.5,54.4,29.48,SSE,157,6.0,10.0,65,0.00,,,0.00,VWS V14.01,2013-01-30 13:59:00,
2013-01-30 09:04:00,66.7,54.6,29.48,South,169,5.0,7.0,65,0.00,,,0.00,VWS V14.01,2013-01-30 14:04:00,
2013-01-30 09:09:00,66.9,54.3,29.47,SSE,168,8.0,8.0,64,0.00,,,0.00,VWS V14.01,2013-01-30 14:09:00,
2013-01-30 09:14:00,67.2,54.6,29.47,SSE,163,4.0,9.0,64,0.00,,,0.00,VWS V14.01,2013-01-30 14:14:00,
2013-01-30 09:19:00,67.5,54.5,29.46,SSE,154,8.0,10.0,63,0.00,,,0.00,VWS V14.01,2013-01-30 14:19:00,
2013-01-30 09:24:00,68.0,55.0,29.46,SSE,160,5.0,11.0,63,0.00,,,0.00,VWS V14.01,2013-01-30 14:24:00,
2013-01-30 09:29:00,68.9,54.9,29.45,SSW,192,7.0,16.0,61,0.00,,,0.00,VWS V14.01,2013-01-30 14:29:00,
2013-01-30 09:34:00,69.9,55.4,29.46,South,169,6.0,12.0,60,0.00,,,0.00,VWS V14.01,2013-01-30 14:34:00,
2013-01-30 09:39:00,70.8,55.8,29.45,SSW,192,6.0,17.0,59,0.00,,,0.00,VWS V14.01,2013-01-30 14:39:00,
2013-01-30 09:44:00,71.6,56.1,29.45,South,173,7.0,17.0,58,0.00,,,0.00,VWS V14.01,2013-01-30 14:44:00,
2013-01-30 09:49:00,72.1,56.0,29.45,SE,132,5.0,17.0,57,0.00,,,0.00,VWS V14.01,2013-01-30 14:49:00,
2013-01-30 09:54:00,72.1,56.0,29.44,SSE,147,13.0,18.0,57,0.00,,,0.00,VWS V14.01,2013-01-30 14:54:00,
2013-01-30 09:59:00,71.9,55.9,29.44,SSE,168,10.0,18.0,57,0.00,,,0.00,VWS V14.01,2013-01-30 14:59:00,
2013-01-30 10:05:00,71.9,55.4,29.44,SSW,202,7.0,31.0,56,0.00,,,0.00,VWS V14.01,2013-01-30 15:05:00,
2013-01-30 10:10:00,72.3,55.7,29.44,SSE,166,13.0,31.0,56,0.00,,,0.00,VWS V14.01,2013-01-30 15:10:00,
2013-01-30 10:15:00,72.4,55.8,29.45,SW,232,14.0,31.0,56,0.00,,,0.00,VWS V14.01,2013-01-30 15:15:00,
2013-01-30 10:20:00,72.6,55.5,29.45,South,182,7.0,31.0,55,0.00,,,0.00,VWS V14.01,2013-01-30 15:20:00,
2013-01-30 10:25:00,72.8,55.7,29.45,SSW,198,17.0,31.0,55,0.00,,,0.00,VWS V14.01,2013-01-30 15:25:00,
2013-01-30 10:30:00,72.5,54.9,29.48,WSW,258,12.0,17.0,54,0.00,,,0.00,VWS V14.01,2013-01-30 15:30:00,
2013-01-30 10:35:00,64.2,54.6,29.54,WSW,256,9.0,30.0,71,0.05,,,0.05,VWS V14.01,2013-01-30 15:35:00,
2013-01-30 10:40:00,59.4,53.9,29.55,SSW,207,7.0,30.0,82,0.12,,,0.12,VWS V14.01,2013-01-30 15:40:00,
2013-01-30 10:45:00,58.1,53.6,29.55,West,275,4.0,30.0,85,0.13,,,0.13,VWS V14.01,2013-01-30 15:45:00,
2013-01-30 10:50:00,57.7,53.9,29.56,WNW,293,5.0,30.0,87,0.14,,,0.14,VWS V14.01,2013-01-30 15:50:00,
2013-01-30 10:55:00,57.6,54.1,29.56,SW,220,2.0,30.0,88,0.15,,,0.15,VWS V14.01,2013-01-30 15:55:00,
2013-01-30 11:01:00,57.5,54.0,29.56,SW,235,0.0,4.0,88,0.16,,,0.16,VWS V14.01,2013-01-30 16:01:00,
2013-01-30 11:06:00,57.4,53.9,29.56,SW,232,3.0,8.0,88,0.16,,,0.16,VWS V14.01,2013-01-30 16:06:00,
2013-01-30 11:11:00,57.4,54.2,29.56,SW,236,3.0,9.0,89,0.16,,,0.16,VWS V14.01,2013-01-30 16:11:00,
2013-01-30 11:16:00,57.5,54.3,29.56,West,264,1.0,9.0,89,0.16,,,0.16,VWS V14.01,2013-01-30 16:16:00,
2013-01-30 11:21:00,57.5,54.3,29.56,West,263,3.0,9.0,89,0.17,,,0.17,VWS V14.01,2013-01-30 16:21:00,
2013-01-30 11:26:00,57.5,54.3,29.55,West,259,2.0,9.0,89,0.17,,,0.17,VWS V14.01,2013-01-30 16:26:00,
2013-01-30 11:31:00,57.5,54.3,29.55,WSW,254,2.0,6.0,89,0.17,,,0.17,VWS V14.01,2013-01-30 16:31:00,
2013-01-30 11:36:00,57.7,54.5,29.55,WSW,248,4.0,7.0,89,0.17,,,0.17,VWS V14.01,2013-01-30 16:36:00,
2013-01-30 11:41:00,57.8,54.6,29.54,SSW,197,1.0,7.0,89,0.17,,,0.17,VWS V14.01,2013-01-30 16:41:00,
2013-01-30 11:46:00,57.9,54.7,29.55,SW,230,0.0,7.0,89,0.17,,,0.17,VWS V14.01,2013-01-30 16:46:00,
2013-01-30 11:51:00,58.0,54.5,29.54,South,177,0.0,7.0,88,0.17,,,0.17,VWS V14.01,2013-01-30 16:51:00,
2013-01-30 11:56:00,58.1,54.9,29.56,SE,146,4.0,7.0,89,0.17,,,0.17,VWS V14.01,2013-01-30 16:56:00,
2013-01-30 12:01:00,58.0,54.5,29.56,South,182,9.0,9.0,88,0.01,,,0.17,VWS V14.01,2013-01-30 17:01:00,
2013-01-30 12:07:00,58.1,54.6,29.56,SSE,148,2.0,9.0,88,0.01,,,0.17,VWS V14.01,2013-01-30 17:07:00,
2013-01-30 12:12:00,58.1,54.9,29.56,SE,144,5.0,9.0,89,0.01,,,0.17,VWS V14.01,2013-01-30 17:12:00,
2013-01-30 12:17:00,58.0,54.8,29.56,SSE,152,3.0,9.0,89,0.01,,,0.17,VWS V14.01,2013-01-30 17:17:00,
2013-01-30 12:22:00,58.0,54.8,29.55,SE,139,3.0,9.0,89,0.01,,,0.17,VWS V14.01,2013-01-30 17:22:00,
2013-01-30 12:27:00,58.0,54.8,29.55,South,169,0.0,9.0,89,0.01,,,0.17,VWS V14.01,2013-01-30 17:27:00,
2013-01-30 12:32:00,58.0,54.8,29.54,SW,219,4.0,5.0,89,0.00,,,0.17,VWS V14.01,2013-01-30 17:32:00,
2013-01-30 12:37:00,58.0,54.8,29.54,South,189,7.0,7.0,89,0.00,,,0.17,VWS V14.01,2013-01-30 17:37:00,
2013-01-30 12:42:00,58.1,54.9,29.54,South,181,1.0,7.0,89,0.00,,,0.17,VWS V14.01,2013-01-30 17:42:00,
2013-01-30 12:47:00,58.2,55.0,29.54,South,181,2.0,7.0,89,0.00,,,0.17,VWS V14.01,2013-01-30 17:47:00,
2013-01-30 12:52:00,58.3,55.1,29.54,South,169,0.0,7.0,89,0.00,,,0.17,VWS V14.01,2013-01-30 17:52:00,
2013-01-30 12:57:00,58.4,54.9,29.54,SSW,207,4.0,8.0,88,0.00,,,0.17,VWS V14.01,2013-01-30 17:57:00,
2013-01-30 13:02:00,58.5,54.7,29.54,SSE,165,3.0,7.0,87,0.00,,,0.17,VWS V14.01,2013-01-30 18:02:00,
2013-01-30 13:07:00,58.7,54.5,29.54,SSE,164,3.0,8.0,86,0.00,,,0.17,VWS V14.01,2013-01-30 18:07:00,
2013-01-30 13:12:00,58.8,54.3,29.54,South,173,1.0,10.0,85,0.00,,,0.17,VWS V14.01,2013-01-30 18:12:00,
2013-01-30 13:17:00,58.7,54.2,29.55,South,173,5.0,10.0,85,0.00,,,0.17,VWS V14.01,2013-01-30 18:17:00,
2013-01-30 13:22:00,58.7,54.2,29.55,South,173,7.0,10.0,85,0.01,,,0.18,VWS V14.01,2013-01-30 18:22:00,
2013-01-30 13:28:00,58.6,54.1,29.56,SSE,167,3.0,10.0,85,0.01,,,0.18,VWS V14.01,2013-01-30 18:28:00,
2013-01-30 13:33:00,58.4,54.2,29.56,SSE,163,5.0,8.0,86,0.01,,,0.18,VWS V14.01,2013-01-30 18:33:00,
2013-01-30 13:38:00,58.1,54.3,29.56,South,182,7.0,10.0,87,0.02,,,0.19,VWS V14.01,2013-01-30 18:38:00,
2013-01-30 13:43:00,57.7,53.9,29.55,SSW,209,3.0,10.0,87,0.03,,,0.20,VWS V14.01,2013-01-30 18:43:00,
2013-01-30 13:48:00,57.5,54.0,29.55,South,182,0.0,10.0,88,0.04,,,0.21,VWS V14.01,2013-01-30 18:48:00,
2013-01-30 13:53:00,57.2,53.7,29.53,SSE,162,4.0,10.0,88,0.04,,,0.21,VWS V14.01,2013-01-30 18:53:00,
2013-01-30 13:58:00,57.1,53.9,29.53,South,190,4.0,10.0,89,0.05,,,0.22,VWS V14.01,2013-01-30 18:58:00,
2013-01-30 14:03:00,56.9,53.7,29.53,South,190,1.0,3.0,89,0.05,,,0.22,VWS V14.01,2013-01-30 19:03:00,
2013-01-30 14:08:00,56.7,53.8,29.53,SSE,147,3.0,8.0,90,0.05,,,0.22,VWS V14.01,2013-01-30 19:08:00,
2013-01-30 14:13:00,56.6,53.7,29.53,SSW,196,2.0,11.0,90,0.06,,,0.23,VWS V14.01,2013-01-30 19:13:00,
2013-01-30 14:18:00,56.5,53.6,29.53,SSE,156,4.0,11.0,90,0.07,,,0.24,VWS V14.01,2013-01-30 19:18:00,
2013-01-30 14:24:00,56.4,53.5,29.53,South,190,3.0,11.0,90,0.07,,,0.24,VWS V14.01,2013-01-30 19:24:00,
2013-01-30 14:29:00,56.3,53.7,29.53,SSE,155,8.0,11.0,91,0.08,,,0.25,VWS V14.01,2013-01-30 19:29:00,
2013-01-30 14:34:00,56.2,53.6,29.52,South,169,1.0,7.0,91,0.08,,,0.26,VWS V14.01,2013-01-30 19:34:00,
2013-01-30 14:39:00,56.1,53.5,29.52,SE,144,1.0,7.0,91,0.08,,,0.26,VWS V14.01,2013-01-30 19:39:00,
2013-01-30 14:44:00,56.0,53.4,29.51,SE,128,0.0,7.0,91,0.09,,,0.27,VWS V14.01,2013-01-30 19:44:00,
2013-01-30 14:49:00,56.0,53.7,29.51,SE,141,4.0,7.0,92,0.10,,,0.28,VWS V14.01,2013-01-30 19:49:00,
2013-01-30 14:54:00,56.0,53.7,29.50,SSE,147,2.0,7.0,92,0.11,,,0.29,VWS V14.01,2013-01-30 19:54:00,
2013-01-30 14:59:00,56.0,53.7,29.50,SSE,151,0.0,7.0,92,0.11,,,0.29,VWS V14.01,2013-01-30 19:59:00,
2013-01-30 15:04:00,56.0,53.7,29.50,SSE,162,0.0,5.0,92,0.07,,,0.29,VWS V14.01,2013-01-30 20:04:00,
2013-01-30 15:09:00,55.9,53.6,29.50,SSW,195,1.0,7.0,92,0.08,,,0.30,VWS V14.01,2013-01-30 20:09:00,
2013-01-30 15:14:00,55.9,53.6,29.49,SSE,154,2.0,7.0,92,0.08,,,0.30,VWS V14.01,2013-01-30 20:14:00,
2013-01-30 15:19:00,55.8,53.5,29.49,South,170,1.0,7.0,92,0.08,,,0.30,VWS V14.01,2013-01-30 20:19:00,
2013-01-30 15:24:00,55.8,53.5,29.49,South,170,1.0,7.0,92,0.09,,,0.31,VWS V14.01,2013-01-30 20:24:00,
2013-01-30 15:29:00,55.7,53.4,29.49,South,170,0.0,7.0,92,0.10,,,0.32,VWS V14.01,2013-01-30 20:29:00,
2013-01-30 15:34:00,55.7,53.4,29.48,South,170,2.0,2.0,92,0.06,,,0.32,VWS V14.01,2013-01-30 20:34:00,
2013-01-30 15:39:00,55.7,53.4,29.48,South,170,0.0,4.0,92,0.07,,,0.33,VWS V14.01,2013-01-30 20:39:00,
2013-01-30 15:44:00,55.7,53.7,29.49,South,170,0.0,4.0,93,0.07,,,0.33,VWS V14.01,2013-01-30 20:44:00,
2013-01-30 15:50:00,55.6,53.6,29.49,South,170,2.0,4.0,93,0.08,,,0.34,VWS V14.01,2013-01-30 20:50:00,
2013-01-30 15:55:00,55.6,53.6,29.49,South,190,2.0,6.0,93,0.09,,,0.35,VWS V14.01,2013-01-30 20:55:00,
2013-01-30 16:00:00,55.6,53.6,29.47,SE,137,0.0,6.0,93,0.10,,,0.36,VWS V14.01,2013-01-30 21:00:00,
2013-01-30 16:05:00,55.5,53.5,29.48,SE,143,4.0,7.0,93,0.08,,,0.37,VWS V14.01,2013-01-30 21:05:00,
2013-01-30 16:10:00,55.5,53.5,29.47,SSE,166,2.0,7.0,93,0.09,,,0.38,VWS V14.01,2013-01-30 21:10:00,
2013-01-30 16:15:00,55.4,53.4,29.48,SSE,150,2.0,7.0,93,0.09,,,0.38,VWS V14.01,2013-01-30 21:15:00,
2013-01-30 16:20:00,55.4,53.4,29.47,South,169,0.0,7.0,93,0.11,,,0.40,VWS V14.01,2013-01-30 21:20:00,
2013-01-30 16:25:00,55.3,53.3,29.47,SSE,161,2.0,7.0,93,0.11,,,0.40,VWS V14.01,2013-01-30 21:25:00,
2013-01-30 16:30:00,55.2,53.2,29.47,SSE,153,0.0,1.0,93,0.09,,,0.41,VWS V14.01,2013-01-30 21:30:00,
2013-01-30 16:35:00,55.1,53.1,29.46,SE,140,4.0,5.0,93,0.10,,,0.42,VWS V14.01,2013-01-30 21:35:00,
2013-01-30 16:40:00,55.1,53.1,29.44,SE,144,3.0,5.0,93,0.11,,,0.43,VWS V14.01,2013-01-30 21:40:00,
2013-01-30 16:45:00,55.0,53.0,29.44,SSE,167,0.0,5.0,93,0.12,,,0.44,VWS V14.01,2013-01-30 21:45:00,
2013-01-30 16:51:00,55.0,53.0,29.44,ESE,121,2.0,5.0,93,0.13,,,0.45,VWS V14.01,2013-01-30 21:51:00,
2013-01-30 16:56:00,54.9,52.9,29.44,SE,143,1.0,5.0,93,0.14,,,0.46,VWS V14.01,2013-01-30 21:56:00,
2013-01-30 17:01:00,54.8,52.8,29.44,SE,143,3.0,3.0,93,0.11,,,0.47,VWS V14.01,2013-01-30 22:01:00,
2013-01-30 17:06:00,54.9,52.9,29.43,SE,143,0.0,4.0,93,0.12,,,0.48,VWS V14.01,2013-01-30 22:06:00,
2013-01-30 17:11:00,54.8,52.8,29.43,SE,143,0.0,4.0,93,0.12,,,0.48,VWS V14.01,2013-01-30 22:11:00,
2013-01-30 17:16:00,54.9,53.2,29.43,South,175,3.0,7.0,94,0.13,,,0.49,VWS V14.01,2013-01-30 22:16:00,
2013-01-30 17:21:00,55.0,53.3,29.42,SSE,150,2.0,7.0,94,0.13,,,0.49,VWS V14.01,2013-01-30 22:21:00,
2013-01-30 17:26:00,55.0,53.3,29.41,SE,136,2.0,7.0,94,0.14,,,0.50,VWS V14.01,2013-01-30 22:26:00,
2013-01-30 17:31:00,55.0,53.3,29.41,South,178,4.0,4.0,94,0.10,,,0.51,VWS V14.01,2013-01-30 22:31:00,
2013-01-30 17:36:00,55.1,53.4,29.40,SE,144,3.0,6.0,94,0.10,,,0.51,VWS V14.01,2013-01-30 22:36:00,
2013-01-30 17:41:00,55.0,53.3,29.39,SE,146,1.0,7.0,94,0.11,,,0.52,VWS V14.01,2013-01-30 22:41:00,
2013-01-30 17:46:00,55.0,53.3,29.39,ESE,107,2.0,8.0,94,0.12,,,0.53,VWS V14.01,2013-01-30 22:46:00,
2013-01-30 17:51:00,55.0,53.3,29.39,SE,126,0.0,8.0,94,0.13,,,0.54,VWS V14.01,2013-01-30 22:51:00,
2013-01-30 17:56:00,55.0,53.3,29.39,ESE,105,5.0,8.0,94,0.14,,,0.55,VWS V14.01,2013-01-30 22:56:00,
2013-01-30 18:01:00,55.0,53.3,29.38,South,176,5.0,5.0,94,0.08,,,0.55,VWS V14.01,2013-01-30 23:01:00,
2013-01-30 18:06:00,55.1,53.4,29.38,SE,140,3.0,6.0,94,0.09,,,0.56,VWS V14.01,2013-01-30 23:06:00,
2013-01-30 18:12:00,55.3,53.6,29.38,ESE,116,1.0,12.0,94,0.10,,,0.57,VWS V14.01,2013-01-30 23:12:00,
2013-01-30 18:17:00,55.4,53.7,29.37,SE,134,5.0,12.0,94,0.10,,,0.57,VWS V14.01,2013-01-30 23:17:00,
2013-01-30 18:22:00,55.4,53.7,29.37,South,184,4.0,12.0,94,0.11,,,0.58,VWS V14.01,2013-01-30 23:22:00,
2013-01-30 18:27:00,55.5,53.8,29.36,SSE,153,0.0,12.0,94,0.12,,,0.59,VWS V14.01,2013-01-30 23:27:00,
2013-01-30 18:32:00,55.5,53.8,29.36,SSE,148,1.0,11.0,94,0.10,,,0.60,VWS V14.01,2013-01-30 23:32:00,
2013-01-30 18:37:00,55.5,53.5,29.35,SSE,158,2.0,12.0,93,0.11,,,0.61,VWS V14.01,2013-01-30 23:37:00,
2013-01-30 18:42:00,55.6,53.6,29.35,SSE,164,8.0,12.0,93,0.11,,,0.61,VWS V14.01,2013-01-30 23:42:00,
2013-01-30 18:47:00,55.7,53.7,29.35,SSE,163,2.0,12.0,93,0.12,,,0.62,VWS V14.01,2013-01-30 23:47:00,
2013-01-30 18:52:00,55.6,53.6,29.34,SSE,167,2.0,12.0,93,0.13,,,0.63,VWS V14.01,2013-01-30 23:52:00,
2013-01-30 18:57:00,55.6,53.6,29.33,SSE,165,1.0,12.0,93,0.14,,,0.64,VWS V14.01,2013-01-30 23:57:00,
2013-01-30 19:02:00,55.7,53.7,29.32,ESE,120,3.0,11.0,93,0.10,,,0.65,VWS V14.01,2013-01-31 00:02:00,
2013-01-30 19:07:00,55.8,53.8,29.32,SE,142,3.0,11.0,93,0.12,,,0.67,VWS V14.01,2013-01-31 00:07:00,
2013-01-30 19:12:00,55.8,53.8,29.32,SE,142,4.0,11.0,93,0.13,,,0.68,VWS V14.01,2013-01-31 00:12:00,
2013-01-30 19:17:00,55.8,53.8,29.32,SE,128,4.0,11.0,93,0.14,,,0.69,VWS V14.01,2013-01-31 00:17:00,
2013-01-30 19:22:00,55.9,53.9,29.32,SSE,161,4.0,14.0,93,0.15,,,0.70,VWS V14.01,2013-01-31 00:22:00,
2013-01-30 19:27:00,55.9,53.9,29.31,SE,142,6.0,14.0,93,0.16,,,0.71,VWS V14.01,2013-01-31 00:27:00,
2013-01-30 19:32:00,55.9,53.6,29.30,SSE,148,9.0,12.0,92,0.13,,,0.72,VWS V14.01,2013-01-31 00:32:00,
2013-01-30 19:37:00,56.0,53.7,29.30,SE,142,6.0,12.0,92,0.14,,,0.73,VWS V14.01,2013-01-31 00:37:00,
2013-01-30 19:43:00,56.0,53.7,29.29,South,169,10.0,12.0,92,0.15,,,0.74,VWS V14.01,2013-01-31 00:43:00,
2013-01-30 19:48:00,56.1,53.8,29.28,SSE,166,4.0,14.0,92,0.17,,,0.76,VWS V14.01,2013-01-31 00:48:00,
2013-01-30 19:53:00,56.1,53.8,29.27,SSW,208,5.0,14.0,92,0.17,,,0.76,VWS V14.01,2013-01-31 00:53:00,
2013-01-30 19:58:00,56.0,53.7,29.27,SSW,198,10.0,17.0,92,0.17,,,0.76,VWS V14.01,2013-01-31 00:58:00,
2013-01-30 20:03:00,56.0,53.7,29.28,South,186,3.0,10.0,92,0.12,,,0.77,VWS V14.01,2013-01-31 01:03:00,
2013-01-30 20:08:00,56.2,53.9,29.28,SSE,155,5.0,13.0,92,0.12,,,0.77,VWS V14.01,2013-01-31 01:08:00,
2013-01-30 20:13:00,56.1,53.8,29.29,South,169,5.0,13.0,92,0.13,,,0.78,VWS V14.01,2013-01-31 01:13:00,
2013-01-30 20:18:00,56.1,53.8,29.28,SE,134,2.0,14.0,92,0.14,,,0.79,VWS V14.01,2013-01-31 01:18:00,
2013-01-30 20:23:00,56.1,53.8,29.28,SSE,165,6.0,14.0,92,0.15,,,0.80,VWS V14.01,2013-01-31 01:23:00,
2013-01-30 20:28:00,56.1,53.8,29.28,SSE,163,3.0,14.0,92,0.17,,,0.82,VWS V14.01,2013-01-31 01:28:00,
2013-01-30 20:33:00,56.0,53.7,29.28,SSW,204,5.0,12.0,92,0.12,,,0.83,VWS V14.01,2013-01-31 01:33:00,
2013-01-30 20:38:00,56.0,53.7,29.28,SSW,198,7.0,12.0,92,0.13,,,0.84,VWS V14.01,2013-01-31 01:38:00,
2013-01-30 20:43:00,55.5,53.2,29.28,WSW,238,10.0,21.0,92,0.15,,,0.86,VWS V14.01,2013-01-31 01:43:00,
2013-01-30 20:48:00,54.2,50.4,29.27,WSW,252,10.0,21.0,87,0.15,,,0.86,VWS V14.01,2013-01-31 01:48:00,
2013-01-30 20:53:00,53.4,49.3,29.27,WSW,243,13.0,21.0,86,0.15,,,0.86,VWS V14.01,2013-01-31 01:53:00,
2013-01-30 20:58:00,53.0,49.2,29.27,SW,234,5.0,21.0,87,0.15,,,0.86,VWS V14.01,2013-01-31 01:58:00,
2013-01-30 21:04:00,52.7,49.0,29.27,SW,219,3.0,8.0,87,0.09,,,0.86,VWS V14.01,2013-01-31 02:04:00,
2013-01-30 21:09:00,52.4,48.7,29.28,WSW,238,7.0,14.0,87,0.10,,,0.87,VWS V14.01,2013-01-31 02:09:00,
2013-01-30 21:14:00,52.2,48.5,29.28,SSW,206,6.0,14.0,87,0.10,,,0.87,VWS V14.01,2013-01-31 02:14:00,
2013-01-30 21:19:00,51.9,48.5,29.27,SSW,197,2.0,14.0,88,0.11,,,0.88,VWS V14.01,2013-01-31 02:19:00,
2013-01-30 21:24:00,51.7,48.3,29.27,SSW,207,8.0,16.0,88,0.12,,,0.89,VWS V14.01,2013-01-31 02:24:00,
2013-01-30 21:29:00,51.5,48.1,29.28,SW,236,7.0,20.0,88,0.13,,,0.90,VWS V14.01,2013-01-31 02:29:00,
2013-01-30 21:34:00,51.5,48.1,29.28,SW,225,5.0,13.0,88,0.08,,,0.90,VWS V14.01,2013-01-31 02:34:00,
2013-01-30 21:39:00,51.2,48.1,29.27,SW,215,7.0,13.0,89,0.09,,,0.91,VWS V14.01,2013-01-31 02:39:00,
2013-01-30 21:44:00,51.1,48.0,29.27,SW,226,5.0,13.0,89,0.09,,,0.91,VWS V14.01,2013-01-31 02:44:00,
2013-01-30 21:49:00,51.0,48.2,29.26,SW,216,9.0,13.0,90,0.10,,,0.92,VWS V14.01,2013-01-31 02:49:00,
2013-01-30 21:54:00,51.0,48.2,29.26,SSW,196,3.0,13.0,90,0.10,,,0.92,VWS V14.01,2013-01-31 02:54:00,
2013-01-30 21:59:00,50.9,48.1,29.27,SSW,202,3.0,13.0,90,0.10,,,0.92,VWS V14.01,2013-01-31 02:59:00,
2013-01-30 22:04:00,50.8,48.0,29.28,SSW,194,6.0,9.0,90,0.06,,,0.92,VWS V14.01,2013-01-31 03:04:00,
2013-01-30 22:09:00,50.7,48.2,29.28,SSW,196,1.0,10.0,91,0.07,,,0.93,VWS V14.01,2013-01-31 03:09:00,
2013-01-30 22:14:00,50.6,48.1,29.27,SSE,165,3.0,10.0,91,0.07,,,0.93,VWS V14.01,2013-01-31 03:14:00,
2013-01-30 22:20:00,50.6,48.1,29.25,SSW,196,1.0,10.0,91,0.08,,,0.94,VWS V14.01,2013-01-31 03:20:00,
2013-01-30 22:25:00,50.6,48.1,29.25,South,180,3.0,10.0,91,0.08,,,0.94,VWS V14.01,2013-01-31 03:25:00,
2013-01-30 22:30:00,50.6,48.1,29.26,SW,230,9.0,9.0,91,0.05,,,0.95,VWS V14.01,2013-01-31 03:30:00,
2013-01-30 22:35:00,50.6,48.1,29.27,South,182,5.0,10.0,91,0.05,,,0.95,VWS V14.01,2013-01-31 03:35:00,
2013-01-30 22:40:00,50.8,48.3,29.27,SW,217,6.0,12.0,91,0.06,,,0.96,VWS V14.01,2013-01-31 03:40:00,
2013-01-30 22:45:00,50.8,48.3,29.27,SW,218,4.0,12.0,91,0.07,,,0.97,VWS V14.01,2013-01-31 03:45:00,
2013-01-30 22:50:00,50.7,48.2,29.28,SSW,204,5.0,12.0,91,0.08,,,0.98,VWS V14.01,2013-01-31 03:50:00,
2013-01-30 22:55:00,50.6,48.1,29.28,SW,232,4.0,14.0,91,0.09,,,0.99,VWS V14.01,2013-01-31 03:55:00,
2013-01-30 23:00:00,50.5,47.7,29.27,SW,216,9.0,11.0,90,0.08,,,1.00,VWS V14.01,2013-01-31 04:00:00,
2013-01-30 23:05:00,50.5,47.4,29.27,SW,215,12.0,16.0,89,0.08,,,1.00,VWS V14.01,2013-01-31 04:05:00,
2013-01-30 23:10:00,50.2,46.8,29.27,SSW,213,7.0,16.0,88,0.08,,,1.00,VWS V14.01,2013-01-31 04:10:00,
2013-01-30 23:15:00,50.1,46.4,29.27,SW,225,7.0,21.0,87,0.09,,,1.01,VWS V14.01,2013-01-31 04:15:00,
2013-01-30 23:20:00,49.9,47.4,29.30,SSW,202,9.0,21.0,91,0.09,,,1.01,VWS V14.01,2013-01-31 04:20:00,
2013-01-30 23:25:00,49.7,46.0,29.30,SSW,206,15.0,21.0,87,0.10,,,1.02,VWS V14.01,2013-01-31 04:25:00,
2013-01-30 23:30:00,49.4,45.4,29.30,SSW,208,17.0,17.0,86,0.08,,,1.03,VWS V14.01,2013-01-31 04:30:00,
2013-01-30 23:35:00,49.1,44.8,29.30,SSW,204,7.0,23.0,85,0.10,,,1.05,VWS V14.01,2013-01-31 04:35:00,
2013-01-30 23:41:00,48.7,44.4,29.28,SW,217,3.0,23.0,85,0.10,,,1.05,VWS V14.01,2013-01-31 04:41:00,
2013-01-30 23:45:00,48.4,44.4,29.27,SSW,198,6.0,23.0,86,0.10,,,1.05,VWS V14.01,2013-01-31 04:45:00,
2013-01-30 23:51:00,48.3,44.3,29.26,SSW,192,9.0,23.0,86,0.11,,,1.06,VWS V14.01,2013-01-31 04:51:00,
2013-01-30 23:56:00,48.1,44.1,29.26,SSW,202,4.0,23.0,86,0.11,,,1.06,VWS V14.01,2013-01-31 04:56:00,